Content
SEND FEEDBACK

Daily
Averages
Monthly
Summary
United States of America

YELLOWSTONE NATIONAL PARK, WYOMING


Home > North America > United States > Wyoming
Elevation: 7938 feet     Latitude: 44 34N     Longitude: 110 24W

WEATHER
 
SELECT A DAY
Number of Records: 295,280;   Date Range: 1/1/95 - 7/23/14
 
SHARE

PRINT THIS DATA

[ ← Previous Day ]
WEATHER ALMANAC - JULY 21, 2013
[ Next Day → ]
[ °C ]   °F
Weather ElementAverageHighLow
Temperature60.8 °F78.1 °F (2:56 pm)39.9 °F (5:56 am)
Dewpoint30.8 °F46.9 °F (9:56 am)9 °F (1:56 pm)
Humidity42.8 %83 % (5:56 am)8 % (1:56 pm)
Barometer29.94 in29.98 in (9:56 am)29.90 in (3:56 am)
Wind Speed2.8 mph8.1 mph (1:56 pm)
Wind Gust19.6 mph (1:56 pm)
Weather ElementAverage
Wind DirectionENE (63.5 °)

Weather ElementTotal
Precipitation---
Heating Degree Days6 (Base 65)
Growing Degree Days9 (Base 50)
Averaged from 23 records on July 21, 2013
WEATHER CONDITIONS BREAKOUT
WIND DIRECTION BREAKOUT
WEATHER BY HOUR - JULY 21, 2013
[ °C ]   °F
Local TimeTemperatureDewpointHumidityBarometerVisibilityWind DirectionWind SpeedGust SpeedPrecipitationEventsConditions
1:56 AM46.0 °F34.0 °F63 %29.91 inCalm
2:56 AM44.1 °F34.0 °F68 %29.91 inCalm
3:56 AM42.1 °F35.1 °F76 %29.90 inCalm
4:56 AM41.0 °F35.1 °F79 %29.91 inCalm
5:56 AM39.9 °F35.1 °F83 %29.94 inCalm
6:56 AM42.1 °F36.0 °F79 %29.93 inCalm
7:56 AM52.0 °F43.0 °F71 %29.93 inCalm
8:56 AM57.0 °F45.0 °F64 %29.96 inESE (110°)3.5 mph
9:56 AM60.1 °F46.9 °F62 %29.98 inVariable3.5 mph
10:56 AM64.9 °F46.0 °F50 %29.97 inCalm
11:56 AM68.0 °F35.1 °F30 %29.96 inVariable3.5 mph
12:56 PM75.9 °F12.9 °F9 %29.93 inVariable4.6 mph
1:56 PM75.0 °F9.0 °F8 %29.93 inWest (280°)8.1 mph19.6 mph
2:56 PM78.1 °F16.0 °F10 %29.92 inVariable5.8 mph16.1 mph
3:56 PM78.1 °F21.0 °F12 %29.92 inVariable4.6 mph
4:56 PM78.1 °F21.9 °F12 %29.93 inVariable6.9 mph
5:56 PM78.1 °F19.9 °F11 %29.93 inWest (280°)8.1 mph16.1 mph
6:56 PM75.9 °F23.0 °F14 %29.93 inSouth (180°)3.5 mph
7:56 PM73.0 °F28.0 °F19 %29.91 inCalm
8:56 PM66.0 °F30.9 °F27 %29.93 inVariable3.5 mph
9:56 PM60.1 °F33.1 °F36 %29.97 inWNW (300°)4.6 mph
10:56 PM54.0 °F35.1 °F49 %29.98 inCalm
11:56 PM50.0 °F33.1 °F52 %29.98 inNW (310°)3.5 mph
Hourly data recorded from KP60, located miles away from Yellowstone National Park, Wyoming







STORIES FROM OUR PARTNERS